Date String (YYYY-MM-DD hh:mm:ss) UTC,Instrument flags,Ambient pressure (hPa),Sample flow (lpm),Bypass flow (lpm),Sample temperature (°C),Ambient temperature (°C),ASC tube jacket temperature (°C),LED temperature (°C),Box temperature (°C),Sample RH (%),Span deviation,Mass concentration (μg/m³),Mass concentration (μg/m³),Mass concentration (μg/m³)
DateTimeUTC,F1_M11,P_M11,Q1_M11,Q2_M11,T1_M11,T2_M11,T3_M11,T4_M11,T5_M11,U1_M11,ZSPAN_M11,X0_M11,X2_M11,X1_M11
2022-01-31 19:00:00,,0814.1,5.01,0.00,23.0,22.3,00.0,32.0,24.8,03.8,0000.0,0000.97,0000.43,0000.25
2022-01-31 19:01:00,,0814.1,4.99,0.00,23.0,22.4,00.0,32.0,24.8,03.5,0000.0,0000.70,0000.41,0000.24
2022-01-31 19:02:00,,0813.8,5.03,0.00,23.0,22.4,00.0,32.0,24.8,03.6,0000.0,0000.75,0000.43,0000.25
2022-01-31 19:03:00,,0814.0,4.99,0.00,23.0,22.4,00.0,32.0,24.8,03.8,0000.0,0000.78,0000.43,0000.24
2022-01-31 19:04:00,,0814.0,5.01,0.00,23.1,22.4,00.0,32.0,24.9,03.5,0000.0,0000.80,0000.43,0000.24
2022-01-31 19:05:00,,0814.0,4.99,0.00,23.1,22.4,00.0,32.0,24.9,03.4,0000.0,0001.68,0000.42,0000.24
2022-01-31 19:06:00,,0814.1,5.00,0.00,23.1,22.5,00.0,32.0,24.9,03.1,0000.0,0002.04,0000.41,0000.24
2022-01-31 19:07:00,,0813.9,5.01,0.00,23.1,22.5,00.0,32.0,24.9,03.7,0000.0,0002.06,0000.41,0000.24
2022-01-31 19:08:00,,0813.9,4.99,0.00,23.1,22.5,00.0,32.0,24.9,03.9,0000.0,0002.04,0000.40,0000.23
2022-01-31 19:09:00,,0814.0,5.01,0.00,23.1,22.5,00.0,32.0,24.9,03.6,0000.0,0002.01,0000.38,0000.24
2022-01-31 19:10:00,,0813.9,5.00,0.00,23.1,22.5,00.0,32.0,24.9,03.8,0000.0,0001.98,0000.37,0000.25
2022-01-31 19:11:00,,0814.0,5.01,0.00,23.2,22.6,00.0,32.0,24.9,03.7,0000.0,0001.89,0000.35,0000.25
2022-01-31 19:12:00,,0814.1,5.00,0.00,23.2,22.6,00.0,32.1,25.0,03.8,0000.0,0001.87,0000.34,0000.25
2022-01-31 19:13:00,,0813.9,5.00,0.00,23.2,22.6,00.0,32.1,25.0,03.8,0000.0,0001.86,0000.34,0000.24
2022-01-31 19:14:00,,0813.9,5.02,0.00,23.2,22.6,00.0,32.1,25.0,03.4,0000.0,0001.85,0000.34,0000.24
2022-01-31 19:15:00,,0813.6,4.99,0.00,23.2,22.5,00.0,32.1,25.0,03.9,0000.0,0001.89,0000.36,0000.25
2022-01-31 19:16:00,,0813.8,5.00,0.00,23.2,22.5,00.0,32.1,25.0,03.8,0000.0,0001.20,0000.36,0000.25
2022-01-31 19:17:00,,0813.7,5.00,0.00,23.2,22.5,00.0,32.1,25.0,03.5,0000.0,0000.54,0000.35,0000.24
2022-01-31 19:18:00,,0813.8,4.99,0.00,23.2,22.6,00.0,32.1,25.0,03.2,0000.0,0000.51,0000.34,0000.24
2022-01-31 19:19:00,,0813.4,4.99,0.00,23.2,22.6,00.0,32.1,25.0,03.2,0000.0,0000.56,0000.36,0000.24
2022-01-31 19:20:00,,0813.8,5.01,0.00,23.2,22.5,00.0,32.1,25.0,03.2,0000.0,0000.59,0000.38,0000.24
2022-01-31 19:21:00,,0813.8,5.00,0.00,23.2,22.5,00.0,32.2,25.0,03.7,0000.0,0001.02,0000.39,0000.23
2022-01-31 19:22:00,,0813.9,4.99,0.00,23.2,22.5,00.0,32.2,25.0,03.4,0000.0,0001.11,0000.41,0000.23
2022-01-31 19:23:00,,0813.8,5.00,0.00,23.2,22.5,00.0,32.2,25.0,03.5,0000.0,0001.67,0000.43,0000.22
2022-01-31 19:24:00,,0813.8,5.01,0.00,23.2,22.5,00.0,32.2,25.0,03.2,0000.0,0002.47,0000.44,0000.23
2022-01-31 19:25:00,,0813.8,4.99,0.00,23.2,22.5,00.0,32.2,25.0,03.4,0000.0,0002.45,0000.43,0000.22
2022-01-31 19:26:00,,0813.7,5.00,0.00,23.2,22.5,00.0,32.2,25.0,03.5,0000.0,0002.38,0000.41,0000.22
2022-01-31 19:27:00,,0813.7,5.00,0.00,23.2,22.5,00.0,32.2,25.0,03.4,0000.0,0003.09,0000.43,0000.22
2022-01-31 19:28:00,,0813.9,5.01,0.00,23.2,22.5,00.0,32.2,25.0,03.6,0000.0,0003.54,0000.47,0000.23
2022-01-31 19:29:00,,0813.8,5.00,0.00,23.2,22.5,00.0,32.2,25.0,03.6,0000.0,0003.77,0000.50,0000.23
2022-01-31 19:30:00,,0813.8,5.00,0.00,23.2,22.4,00.0,32.2,25.0,03.7,0000.0,0003.75,0000.49,0000.24
2022-01-31 19:31:00,,0813.9,5.01,0.00,23.2,22.4,00.0,32.2,25.0,03.7,0000.0,0003.89,0000.50,0000.24
2022-01-31 19:32:00,,0813.7,5.00,0.00,23.2,22.4,00.0,32.2,25.0,03.6,0000.0,0003.51,0000.49,0000.24
2022-01-31 19:33:00,,0813.7,5.01,0.00,23.2,22.4,00.0,32.2,25.0,03.6,0000.0,0003.43,0000.48,0000.24
2022-01-31 19:34:00,,0813.7,4.99,0.00,23.2,22.5,00.0,32.2,24.9,03.4,0000.0,0002.98,0000.47,0000.24
2022-01-31 19:35:00,,0814.0,5.01,0.00,23.2,22.5,00.0,32.2,25.0,03.5,0000.0,0002.11,0000.46,0000.24
2022-01-31 19:36:00,,0813.9,5.00,0.00,23.2,22.5,00.0,32.2,25.0,03.6,0000.0,0002.17,0000.47,0000.24
2022-01-31 19:37:00,,0813.9,5.00,0.00,23.2,22.5,00.0,32.2,25.0,03.7,0000.0,0002.13,0000.45,0000.23
2022-01-31 19:38:00,,0813.7,5.00,0.00,23.2,22.4,00.0,32.2,24.9,04.3,0000.0,0001.38,0000.42,0000.22
2022-01-31 19:39:00,,0813.8,5.01,0.00,23.2,22.5,00.0,32.2,25.0,04.0,0000.0,0001.04,0000.41,0000.22
2022-01-31 19:40:00,,0813.8,5.00,0.00,23.2,22.5,00.0,32.2,25.0,04.0,0000.0,0000.85,0000.39,0000.21
2022-01-31 19:41:00,,0813.7,5.01,0.00,23.2,22.5,00.0,32.2,25.0,03.9,0000.0,0000.89,0000.40,0000.22
2022-01-31 19:42:00,,0813.8,4.99,0.00,23.2,22.5,00.0,32.2,25.0,04.0,0000.0,0000.74,0000.39,0000.22
2022-01-31 19:43:00,,0813.5,5.01,0.00,23.2,22.5,00.0,32.2,25.0,04.1,0000.0,0000.71,0000.38,0000.21
2022-01-31 19:44:00,,0813.3,5.00,0.00,23.3,22.5,00.0,32.2,25.0,04.6,0000.0,0000.70,0000.38,0000.22
2022-01-31 19:45:00,,0813.4,5.00,0.00,23.3,22.5,00.0,32.2,25.1,04.7,0000.0,0001.15,0000.40,0000.21
2022-01-31 19:46:00,,0813.5,5.01,0.00,23.3,22.6,00.0,32.2,25.1,04.4,0000.0,0001.41,0000.44,0000.21
2022-01-31 19:47:00,,0813.5,5.00,0.00,23.3,22.6,00.0,32.2,25.0,04.4,0000.0,0001.41,0000.42,0000.22
2022-01-31 19:48:00,,0813.5,4.99,0.00,23.3,22.6,00.0,32.2,25.0,04.6,0000.0,0001.49,0000.47,0000.23
2022-01-31 19:49:00,,0813.4,5.02,0.00,23.3,22.6,00.0,32.2,25.0,04.1,0000.0,0002.53,0000.47,0000.24
2022-01-31 19:50:00,,0813.4,4.99,0.00,23.3,22.6,00.0,32.3,25.1,04.1,0000.0,0003.16,0000.46,0000.24
2022-01-31 19:51:00,,0813.2,5.01,0.00,23.4,22.6,00.0,32.3,25.1,04.3,0000.0,0003.13,0000.44,0000.24
2022-01-31 19:52:00,,0813.1,4.99,0.00,23.4,22.6,00.0,32.3,25.1,04.4,0000.0,0003.05,0000.41,0000.24
2022-01-31 19:53:00,,0813.1,5.00,0.00,23.4,22.7,00.0,32.3,25.1,04.4,0000.0,0003.03,0000.40,0000.23
2022-01-31 19:54:00,,0813.0,5.01,0.00,23.4,22.7,00.0,32.3,25.2,04.3,0000.0,0003.08,0000.42,0000.23
2022-01-31 19:55:00,,0813.0,4.98,0.00,23.4,22.7,00.0,32.3,25.2,04.6,0000.0,0003.08,0000.41,0000.23
2022-01-31 19:56:00,,0813.0,5.01,0.00,23.4,22.7,00.0,32.3,25.2,04.7,0000.0,0002.65,0000.37,0000.23
2022-01-31 19:57:00,,0813.0,5.00,0.00,23.5,22.8,00.0,32.3,25.2,04.5,0000.0,0002.67,0000.34,0000.23
2022-01-31 19:58:00,,0813.0,5.01,0.00,23.5,22.8,00.0,32.3,25.2,04.3,0000.0,0002.69,0000.33,0000.23
2022-01-31 19:59:00,,0813.0,4.99,0.00,23.5,22.7,00.0,32.4,25.3,04.5,0000.0,0002.62,0000.28,0000.22
